Change the Weather History Date:

Monday, October 25, 2010

  Actual Average Record
Temperature  
Mean Temperature 73 °F 62 °F  
Max Temperature 85 °F 74 °F 91 °F (1927)
Min Temperature 60 °F 50 °F 31 °F (1926)
Degree Days  
Heating Degree Days 0 5  
Month to date heating degree days 38 70  
Since 1 July heating degree days 38 76  
Cooling Degree Days 8 2  
Month to date cooling degree days 81 83  
Year to date cooling degree days 2645 2163  
Growing Degree Days 22 (Base 50)    
Moisture  
Dew Point 63 °F    
Average Humidity 73    
Maximum Humidity 97    
Minimum Humidity 48    
Precipitation  
Precipitation 0.08 in 0.13 in 2.35 in (2003)
Month to date precipitation 3.41 3.69  
Year to date precipitation 23.53 41.33  
Sea Level Pressure  
Sea Level Pressure 29.71 in    
Wind  
Wind Speed 17 mph (SSW)    
Max Wind Speed 28 mph    
Max Gust Speed 39 mph    
Visibility 10 miles    
Events Rain , Thunderstorm    
T = Trace of Precipitation, MM = Missing Value Source: NWS Daily Summary

Daily Weather History Graph

Daily Weather History Graph

Search for Another Location

Airport or City:

Trip Planner

Search our weather history database for the weather conditions in past years. The results will help you decide how hot, cold, wet, or windy it might be!

Date:

Astronomy

Oct. 25, 2010 Rise Set
Actual Time 7:16 AM CDT 6:18 PM CDT
Civil Twilight 6:51 AM CDT 6:44 PM CDT
Nautical Twilight 6:22 AM CDT 7:13 PM CDT
Astronomical Twilight 5:53 AM CDT 7:42 PM CDT
Moon 7:58 PM CDT (10/25) 9:48 AM CDT (10/25)
Length of Visible Light 11h 52m
Length of Day
11h 02m
Waning Gibbous, 93% of the Moon is Illuminated
Oct 25
Waning Gibbous
Oct 30
Last Quarter
Nov 5
New
Nov 13
First Quarter
Nov 21
Full

Hourly Weather History & Observations

Time (CDT) Temp. Heat Index Dew Point Humidity Pressure Visibility Wind Dir Wind Speed Gust Speed Precip Events Conditions
12:32 AM 62.6 °F - 60.8 °F 94% 29.91 in 10.0 mi West 4.6 mph - 0.02 in Rain , Thunderstorm Light Rain
12:53 AM 62.1 °F - 59.0 °F 90% 29.89 in 6.0 mi Calm Calm - 0.04 in Rain Light Rain
1:18 AM 62.6 °F - 57.2 °F 82% 29.83 in 10.0 mi WSW 4.6 mph - 0.02 in Rain , Thunderstorm Light Rain
1:53 AM 64.9 °F - 57.0 °F 75% 29.82 in 8.0 mi SSW 10.4 mph 23.0 mph 0.08 in Rain Rain
2:53 AM 61.0 °F - 57.9 °F 90% 29.79 in 10.0 mi South 5.8 mph - 0.00 in   Clear
3:53 AM 62.1 °F - 60.1 °F 93% 29.77 in 10.0 mi South 11.5 mph - N/A   Clear
4:53 AM 60.1 °F - 59.0 °F 96% 29.75 in 10.0 mi SSW 5.8 mph - N/A   Clear
5:53 AM 63.0 °F - 60.1 °F 90% 29.78 in 10.0 mi South 6.9 mph - N/A   Clear
6:53 AM 62.1 °F - 57.9 °F 86% 29.79 in 10.0 mi South 12.7 mph - N/A   Clear
7:53 AM 62.1 °F - 59.0 °F 90% 29.79 in 10.0 mi South 13.8 mph - N/A   Clear
8:53 AM 64.9 °F - 60.1 °F 84% 29.79 in 10.0 mi South 18.4 mph - N/A   Clear
9:53 AM 69.1 °F - 64.9 °F 87% 29.78 in 10.0 mi South 17.3 mph 26.5 mph N/A   Mostly Cloudy
10:53 AM 73.9 °F - 68.0 °F 82% 29.77 in 10.0 mi South 16.1 mph - N/A   Scattered Clouds
11:22 AM 77.0 °F - 69.8 °F 78% 29.74 in 10.0 mi North - - 0.01 in   Mostly Cloudy
11:53 AM 75.9 °F - 68.0 °F 76% 29.75 in 10.0 mi SSW 20.7 mph 29.9 mph 0.01 in   Mostly Cloudy
12:15 PM 78.8 °F - 69.8 °F 74% 29.71 in 10.0 mi South 20.7 mph 27.6 mph N/A   Mostly Cloudy
12:53 PM 80.1 °F 82.9 °F 69.1 °F 69% 29.72 in 10.0 mi SSW 18.4 mph 27.6 mph N/A   Mostly Cloudy
1:53 PM 84.2 °F 87.3 °F 68.0 °F 58% 29.65 in 10.0 mi SSW 21.9 mph 31.1 mph N/A   Scattered Clouds
2:53 PM 82.9 °F 84.6 °F 64.9 °F 54% 29.64 in 10.0 mi South 25.3 mph 32.2 mph N/A   Scattered Clouds
3:53 PM 84.0 °F 84.9 °F 63.0 °F 49% 29.61 in 10.0 mi South 24.2 mph - N/A   Clear
4:53 PM 82.0 °F 83.8 °F 64.9 °F 56% 29.59 in 10.0 mi South 19.6 mph 28.8 mph N/A   Partly Cloudy
5:53 PM 80.1 °F 81.9 °F 64.9 °F 60% 29.58 in 10.0 mi South 13.8 mph - N/A   Clear
6:53 PM 77.0 °F - 64.9 °F 66% 29.57 in 10.0 mi South 13.8 mph - N/A   Clear
7:53 PM 77.0 °F - 63.0 °F 62% 29.57 in 10.0 mi South 19.6 mph - N/A   Clear
8:53 PM 77.0 °F - 64.9 °F 66% 29.55 in 10.0 mi South 16.1 mph 27.6 mph N/A   Clear
9:53 PM 75.9 °F - 64.9 °F 69% 29.56 in 10.0 mi South 20.7 mph - N/A   Clear
10:53 PM 75.9 °F - 66.0 °F 71% 29.56 in 10.0 mi South 25.3 mph 35.7 mph N/A   Clear
11:53 PM 75.9 °F - 66.9 °F 74% 29.56 in 10.0 mi South 21.9 mph 33.4 mph N/A   Mostly Cloudy